DW7888 Weather Reports


Display with metric or nautical units.
time (UTC)temp
F
wind
direction
speed
MPH
gust
MPH
rain 1hr
in
rain 24hr
in
rain mn
in
humidity
%
barometer
mb
20260508220031 70 28 1.0 5.0 0.00 0.00 0.00 38 1013.4
20260508215507 70 201 0.0 3.0 0.00 0.00 0.00 38 1013.4
20260508215006 70 130 0.0 3.0 0.00 0.00 0.00 37 1013.4
20260508214535 70 100 1.0 3.0 0.00 0.00 0.00 37 1013.4
20260508214006 70 133 0.0 5.0 0.00 0.00 0.00 38 1013.4
20260508213507 70 132 1.0 5.0 0.00 0.00 0.00 38 1013.4
20260508213032 70 317 1.0 6.0 0.00 0.00 0.00 38 1013.4
20260508212507 70 40 0.0 6.0 0.00 0.00 0.00 35 1013.4
20260508212009 70 146 2.0 5.0 0.00 0.00 0.00 35 1013.5
20260508211527 70 21 0.0 3.0 0.00 0.00 0.00 34 1013.3
20260508211007 70 360 0.0 4.0 0.00 0.00 0.00 38 1013.3
20260508210510 70 114 1.0 4.0 0.00 0.00 0.00 34 1013.3
20260508210028 71 235 0.0 4.0 0.00 0.00 0.00 38 1013.3
20260508205507 71 355 1.0 5.0 0.00 0.00 0.00 36 1013.4
20260508205009 71 205 1.0 7.0 0.00 0.00 0.00 37 1013.5
20260508204528 71 88 2.0 7.0 0.00 0.00 0.00 34 1013.5
20260508204006 71 52 1.0 7.0 0.00 0.00 0.00 34 1013.6
20260508203514 71 350 1.0 7.0 0.00 0.01 0.00 36 1013.7
20260508203028 71 163 1.0 8.0 0.00 0.02 0.00 37 1013.7
20260508202507 71 177 1.0 8.0 0.00 0.03 0.00 37 1013.7
20260508202012 71 130 4.0 8.0 0.00 0.04 0.00 34 1013.7
20260508201509 71 189 0.0 9.0 0.00 0.05 0.00 38 1013.7
20260508201008 70 90 1.0 9.0 0.00 0.06 0.00 38 1013.8
20260508200507 71 327 3.0 9.0 0.00 0.06 0.00 35 1013.8
20260508200027 71 15 1.0 6.0 0.00 0.07 0.00 38 1014.0
20260508195509 71 107 0.0 10.0 0.00 0.07 0.00 36 1014.0
20260508195009 71 30 1.0 10.0 0.00 0.07 0.00 35 1013.9
20260508194514 71 178 1.0 7.0 0.00 0.09 0.00 45 1014.0
20260508194011 70 134 2.0 7.0 0.00 0.11 0.00 36 1014.0
20260508193509 71 181 2.0 8.0 0.00 0.11 0.00 36 1014.1
20260508193024 70 144 2.0 8.0 0.00 0.11 0.00 39 1014.2
20260508192515 70 42 1.0 6.0 0.00 0.11 0.00 39 1014.1
20260508192014 69 154 2.0 5.0 0.00 0.11 0.00 37 1014.4
20260508191512 70 5 3.0 6.0 0.00 0.11 0.00 38 1014.5
20260508191007 69 30 1.0 6.0 0.00 0.11 0.00 35 1014.6
20260508190515 70 355 2.0 6.0 0.00 0.11 0.00 37 1014.7
20260508190018 70 218 0.0 4.0 0.00 0.11 0.00 38 1014.9
20260508185507 70 190 1.0 4.0 0.00 0.11 0.00 35 1014.9
20260508185010 69 160 1.0 4.0 0.00 0.11 0.00 37 1015.0
20260508184524 69 50 1.0 4.0 0.00 0.11 0.00 40 1015.2
20260508184009 69 30 0.0 4.0 0.00 0.11 0.00 41 1015.1
20260508183512 69 140 1.0 6.0 0.00 0.11 0.00 36 1015.1
20260508183017 68 175 1.0 6.0 0.00 0.11 0.00 37 1015.2
20260508182507 68 150 1.0 5.0 0.00 0.11 0.00 35 1015.2
20260508182013 69 132 0.0 3.0 0.00 0.11 0.00 41 1015.3
20260508181516 70 148 1.0 3.0 0.00 0.11 0.00 39 1015.4
20260508181013 69 117 1.0 4.0 0.00 0.11 0.00 46 1015.4
20260508180510 68 177 0.0 6.0 0.00 0.11 0.00 43 1015.5
20260508180012 68 158 1.0 6.0 0.00 0.11 0.00 44 1015.6
20260508175504 68 9 2.0 6.0 0.00 0.11 0.00 43 1015.6
20260508175006 68 29 1.0 6.0 0.00 0.11 0.00 39 1015.6
20260508174510 68 329 1.0 6.0 0.00 0.11 0.00 46 1015.7
20260508174001 67 147 1.0 8.0 0.00 0.11 0.00 41 1015.6
20260508173505 68 229 1.0 8.0 0.00 0.11 0.00 38 1015.8
20260508173017 67 146 3.0 7.0 0.00 0.11 0.00 37 1015.9
20260508172504 68 192 1.0 5.0 0.00 0.11 0.00 39 1016.0
20260508172005 67 56 1.0 5.0 0.00 0.11 0.00 44 1016.1
20260508171528 68 130 1.0 5.0 0.00 0.11 0.00 44 1016.2
20260508171005 67 195 1.0 7.0 0.00 0.11 0.00 40 1016.3
20260508170504 67 166 2.0 7.0 0.00 0.11 0.00 45 1016.4
20260508170012 67 169 0.0 7.0 0.00 0.11 0.00 48 1016.4
20260508165503 66 159 1.0 7.0 0.00 0.11 0.00 46 1016.5
20260508165004 67 215 1.0 5.0 0.00 0.11 0.00 42 1016.6
20260508164518 66 138 2.0 5.0 0.00 0.11 0.00 45 1016.6
20260508164004 66 149 1.0 6.0 0.00 0.11 0.00 43 1016.8
20260508163509 66 108 1.0 6.0 0.00 0.11 0.00 44 1016.9
20260508163015 66 144 0.0 4.0 0.00 0.11 0.00 44 1017.0
20260508162506 65 343 1.0 4.0 0.00 0.11 0.00 45 1017.1
20260508162006 65 360 1.0 4.0 0.00 0.11 0.00 41 1017.3
20260508161523 65 127 1.0 4.0 0.00 0.11 0.00 51 1017.3
20260508161002 65 184 0.0 6.0 0.00 0.11 0.00 44 1017.3
20260508160505 64 237 1.0 6.0 0.00 0.11 0.00 50 1017.4
20260508160020 62 63 1.0 6.0 0.00 0.11 0.00 46 1017.4
20260508155505 64 109 2.0 6.0 0.00 0.11 0.00 52 1017.5
20260508155009 64 226 0.0 5.0 0.00 0.11 0.00 51 1017.5
20260508154516 64 30 0.0 4.0 0.00 0.11 0.00 48 1017.5
20260508154003 63 144 0.0 4.0 0.00 0.11 0.00 49 1017.5
20260508153507 62 144 1.0 4.0 0.00 0.11 0.00 53 1017.5
20260508153015 61 78 1.0 4.0 0.00 0.11 0.00 52 1017.6
20260508152505 61 48 2.0 4.0 0.00 0.11 0.00 47 1017.6
20260508152008 61 67 0.0 3.0 0.00 0.11 0.00 51 1017.7
20260508151515 60 5 0.0 3.0 0.00 0.11 0.00 54 1017.6
20260508151008 60 40 1.0 3.0 0.00 0.11 0.00 50 1017.7
20260508150508 60 15 1.0 5.0 0.00 0.11 0.00 60 1017.7
20260508150022 60 355 2.0 5.0 0.00 0.11 0.00 51 1017.7
20260508145505 61 334 1.0 3.0 0.00 0.11 0.00 52 1017.8
20260508145006 60 287 0.0 3.0 0.00 0.11 0.00 58 1017.7
20260508144505 60 49 0.0 3.0 0.00 0.11 0.00 58 1017.8
20260508144004 59 64 2.0 3.0 0.00 0.11 0.00 52 1017.7
20260508143506 59 329 1.0 3.0 0.00 0.11 0.00 59 1017.7
20260508143016 59 26 1.0 3.0 0.00 0.11 0.00 59 1017.8
20260508142504 59 5 0.0 4.0 0.00 0.11 0.00 62 1017.8
20260508142008 59 315 0.0 4.0 0.00 0.11 0.00 64 1017.8
20260508141514 58 329 1.0 4.0 0.00 0.11 0.00 64 1017.7
20260508141008 57 35 2.0 4.0 0.00 0.11 0.00 66 1017.8
20260508140506 57 19 1.0 3.0 0.00 0.11 0.00 68 1017.8
20260508140006 56 30 0.0 3.0 0.00 0.11 0.00 76 1017.6
20260508135507 56 101 0.0 3.0 0.00 0.11 0.00 78 1017.7
20260508135011 55 94 0.0 3.0 0.00 0.11 0.00 82 1017.7
20260508134506 54 92 0.0 1.0 0.00 0.11 0.00 84 1017.8
20260508134006 54 5 0.0 1.0 0.00 0.11 0.00 84 1017.8
20260508133509 53 64 0.0 1.0 0.00 0.11 0.00 87 1017.7
20260508133009 52 355 0.0 1.0 0.00 0.11 0.00 90 1017.7
20260508132505 52 83 0.0 1.0 0.00 0.11 0.00 93 1017.7
20260508132008 51 142 0.0 1.0 0.00 0.11 0.00 94 1017.7
20260508131508 51 332 0.0 2.0 0.00 0.11 0.00 95 1017.8
20260508131012 50 338 0.0 2.0 0.00 0.11 0.00 96 1017.9
20260508130507 50 355 0.0 1.0 0.00 0.11 0.00 96 1017.9
20260508130014 50 309 0.0 3.0 0.00 0.11 0.00 96 1017.9
20260508125511 49 336 0.0 3.0 0.00 0.11 0.00 96 1017.9
20260508125009 49 336 1.0 3.0 0.00 0.11 0.00 96 1017.9
20260508124513 49 39 1.0 2.0 0.00 0.11 0.00 97 1017.9
20260508124011 48 51 0.0 2.0 0.00 0.11 0.00 97 1017.8
20260508123509 48 18 0.0 2.0 0.00 0.11 0.00 97 1017.7
20260508123013 48 28 0.0 3.0 0.00 0.11 0.00 97 1017.7
20260508122509 47 24 0.0 3.0 0.00 0.11 0.00 97 1017.7
20260508122011 47 322 1.0 3.0 0.00 0.11 0.00 97 1017.7
20260508121518 47 350 0.0 2.0 0.00 0.11 0.00 97 1017.5
20260508121008 46 350 0.0 0.0 0.00 0.11 0.00 97 1017.5
20260508120507 46 350 0.0 0.0 0.00 0.11 0.00 97 1017.3
20260508120019 45 350 0.0 0.0 0.00 0.11 0.00 97 1017.2
20260508115502 45 350 0.0 0.0 0.00 0.11 0.00 96 1017.1
20260508115002 44 350 0.0 0.0 0.00 0.11 0.00 96 1017.1
20260508114527 44 350 0.0 0.0 0.00 0.11 0.00 96 1016.9
20260508114001 44 350 0.0 0.0 0.00 0.11 0.00 96 1016.8
20260508113505 44 350 0.0 0.0 0.00 0.11 0.00 96 1016.8
20260508113018 44 350 0.0 0.0 0.00 0.11 0.00 96 1016.7
20260508112503 44 350 0.0 0.0 0.00 0.11 0.00 96 1016.5
20260508112006 43 350 0.0 0.0 0.00 0.11 0.00 96 1016.5
20260508111515 43 350 0.0 0.0 0.00 0.11 0.00 96 1016.4
20260508111004 43 350 0.0 0.0 0.00 0.11 0.00 96 1016.3
20260508110504 43 350 0.0 0.0 0.00 0.11 0.00 96 1016.2
20260508110019 43 350 0.0 0.0 0.00 0.11 0.00 95 1016.1
20260508105503 43 350 0.0 0.0 0.00 0.11 0.00 95 1016.1
20260508105003 43 350 0.0 0.0 0.00 0.11 0.00 95 1015.9
20260508104518 43 350 0.0 0.0 0.00 0.11 0.00 96 1015.8
20260508104004 43 350 0.0 0.0 0.00 0.11 0.00 96 1015.8
20260508103505 43 350 0.0 0.0 0.00 0.11 0.00 96 1015.7
20260508103018 44 350 0.0 0.0 0.00 0.12 0.00 96 1015.7
20260508102503 44 350 0.0 0.0 0.00 0.12 0.00 96 1015.7
20260508102006 44 350 0.0 0.0 0.00 0.12 0.00 96 1015.7
20260508101530 44 350 0.0 0.0 0.00 0.12 0.00 96 1015.6
20260508101003 44 350 0.0 0.0 0.00 0.12 0.00 96 1015.7
20260508100508 44 350 0.0 0.0 0.00 0.12 0.00 96 1015.6
20260508100032 44 350 0.0 0.0 0.00 0.12 0.00 95 1015.5
20260508095506 44 350 0.0 0.0 0.00 0.12 0.00 95 1015.4
20260508095007 44 350 0.0 0.0 0.00 0.12 0.00 95 1015.4
20260508094526 44 350 0.0 0.0 0.00 0.12 0.00 95 1015.3
20260508094003 44 350 0.0 0.0 0.00 0.12 0.00 95 1015.3
20260508093507 44 350 0.0 0.0 0.00 0.12 0.00 96 1015.3
20260508093001 45 350 0.0 0.0 0.00 0.12 0.00 96 1015.3
20260508092509 45 350 0.0 1.0 0.00 0.12 0.00 95 1015.2
20260508092007 45 350 0.0 1.0 0.00 0.13 0.00 95 1015.2
20260508091504 45 350 0.0 1.0 0.00 0.17 0.00 95 1015.1
20260508091005 45 350 0.0 1.0 0.00 0.19 0.00 96 1015.1
20260508090507 45 350 0.0 3.0 0.00 0.19 0.00 96 1015.0
20260508090005 45 342 0.0 3.0 0.00 0.20 0.00 95 1014.9
20260508085510 45 355 0.0 2.0 0.00 0.21 0.00 95 1014.9
20260508085008 45 360 0.0 1.0 0.00 0.22 0.00 95 1014.9
20260508084504 46 56 0.0 1.0 0.00 0.23 0.00 95 1014.8
20260508084006 46 56 0.0 0.0 0.00 0.24 0.00 95 1014.6
20260508083506 46 56 0.0 1.0 0.00 0.24 0.00 95 1014.6
20260508083005 46 57 0.0 1.0 0.00 0.24 0.00 95 1014.5
20260508082505 46 46 0.0 0.0 0.00 0.24 0.00 95 1014.4
20260508082008 46 46 0.0 0.0 0.00 0.25 0.00 95 1014.4
20260508081505 46 46 0.0 0.0 0.00 0.25 0.00 95 1014.3
20260508081007 46 46 0.0 0.0 0.00 0.25 0.00 95 1014.2
20260508080507 47 46 0.0 0.0 0.00 0.25 0.00 95 1014.2
20260508080004 47 46 0.0 0.0 0.00 0.25 0.00 95 1014.2
20260508075506 47 46 0.0 0.0 0.00 0.25 0.00 95 1014.2
20260508075008 47 46 0.0 0.0 0.00 0.25 0.00 96 1014.2
20260508074513 47 46 0.0 0.0 0.00 0.25 0.00 96 1014.2
20260508074009 47 45 0.0 0.0 0.00 0.25 0.00 96 1014.1
20260508073511 47 45 0.0 0.0 0.00 0.25 0.00 95 1014.1
20260508073003 47 45 0.0 1.0 0.00 0.25 0.00 96 1014.1
20260508072508 47 45 0.0 1.0 0.00 0.25 0.00 96 1014.1
20260508072010 47 45 0.0 1.0 0.00 0.25 0.00 96 1014.0
20260508071508 47 60 0.0 0.0 0.00 0.25 0.00 96 1014.0
20260508071007 46 60 0.0 0.0 0.00 0.25 0.00 96 1014.0
20260508070507 46 60 0.0 0.0 0.00 0.25 0.00 95 1013.9
20260508070006 46 60 0.0 0.0 0.00 0.25 0.00 95 1013.8
20260508065509 46 60 0.0 0.0 0.00 0.25 0.00 95 1013.8
20260508065008 46 60 0.0 0.0 0.00 0.25 0.00 95 1013.8
20260508064534 46 60 0.0 0.0 0.00 0.25 0.00 95 1013.9
20260508064005 46 60 0.0 1.0 0.00 0.25 0.00 95 1013.8
20260508063507 46 60 0.0 1.0 0.00 0.25 0.00 95 1013.8
20260508063010 46 60 0.0 1.0 0.00 0.25 0.00 95 1013.7
20260508062511 46 60 0.0 0.0 0.00 0.25 0.00 95 1013.6
20260508062009 46 60 0.0 0.0 0.00 0.25 0.00 96 1013.7
20260508061510 46 60 0.0 0.0 0.00 0.25 0.00 95 1013.7
20260508061011 46 60 0.0 1.0 0.00 0.25 0.00 96 1013.6
20260508060508 46 60 0.0 1.0 0.00 0.25 0.00 95 1013.6
20260508060011 45 172 0.0 0.0 0.00 0.25 0.00 95 1013.6
20260508055506 45 172 0.0 0.0 0.00 0.25 0.00 95 1013.5
20260508055008 45 172 0.0 0.0 0.00 0.25 0.00 95 1013.5
20260508054519 45 172 0.0 0.0 0.00 0.25 0.00 95 1013.4
20260508054009 45 172 0.0 0.0 0.00 0.25 0.00 95 1013.4
20260508053509 45 172 0.0 0.0 0.00 0.25 0.00 95 1013.3
20260508053010 45 172 0.0 0.0 0.00 0.25 0.00 95 1013.4
20260508052507 45 172 0.0 0.0 0.00 0.25 0.00 95 1013.4
20260508052012 46 172 0.0 0.0 0.00 0.25 0.00 94 1013.4
20260508051523 46 172 0.0 0.0 0.00 0.25 0.00 94 1013.3
20260508051008 46 172 0.0 0.0 0.00 0.25 0.00 94 1013.3
20260508050509 46 172 0.0 0.0 0.00 0.25 0.00 95 1013.3
20260508050018 46 172 0.0 0.0 0.00 0.25 0.00 95 1013.3
20260508045507 46 172 0.0 0.0 0.00 0.25 0.00 94 1013.4
20260508045010 46 172 0.0 0.0 0.00 0.25 0.00 94 1013.3
20260508044518 46 172 0.0 0.0 0.00 0.25 0.00 95 1013.2
20260508044012 47 172 0.0 0.0 0.00 0.25 0.00 94 1013.1
20260508043509 47 172 0.0 0.0 0.00 0.25 0.00 94 1013.1
20260508043016 47 172 0.0 0.0 0.00 0.25 0.00 94 1013.1
20260508042507 47 171 0.0 0.0 0.00 0.25 0.00 94 1013.0
20260508042011 47 171 0.0 0.0 0.00 0.25 0.00 94 1013.1
20260508041533 48 171 0.0 0.0 0.00 0.25 0.00 94 1013.1
20260508041007 48 171 0.0 0.0 0.00 0.25 0.00 95 1013.1
20260508040511 48 171 0.0 0.0 0.00 0.25 0.00 94 1012.9
20260508040017 48 171 0.0 0.0 0.00 0.25 0.00 94 1012.9
20260508035515 48 171 0.0 0.0 0.00 0.25 0.25 94 1012.9
20260508035010 48 171 0.0 0.0 0.00 0.25 0.25 94 1012.9
20260508034525 49 171 0.0 0.0 0.00 0.25 0.25 95 1012.8
20260508034009 48 171 0.0 0.0 0.00 0.25 0.25 95 1012.9
20260508033507 48 171 0.0 0.0 0.00 0.25 0.25 94 1012.8
20260508033020 48 171 0.0 0.0 0.00 0.25 0.25 94 1012.8
20260508032510 48 171 0.0 0.0 0.00 0.25 0.25 95 1012.8
20260508032005 48 171 0.0 0.0 0.00 0.25 0.25 94 1012.8
20260508031522 48 171 0.0 0.0 0.00 0.25 0.25 94 1012.8
20260508031011 48 171 0.0 0.0 0.00 0.25 0.25 94 1012.8
20260508030512 49 171 0.0 0.0 0.00 0.25 0.25 94 1012.9
20260508030004 49 171 0.0 0.0 0.00 0.25 0.25 94 1012.7
20260508025504 49 171 0.0 0.0 0.00 0.25 0.25 94 1012.7
20260508025007 49 171 0.0 0.0 0.00 0.25 0.25 94 1012.6
20260508024505 49 171 0.0 0.0 0.00 0.25 0.25 94 1012.6
20260508024005 49 171 0.0 0.0 0.00 0.25 0.25 94 1012.6
20260508023506 49 171 0.0 0.0 0.00 0.25 0.25 94 1012.5
20260508023004 48 171 0.0 0.0 0.00 0.25 0.25 94 1012.5
20260508022504 48 171 0.0 0.0 0.00 0.25 0.25 94 1012.5
20260508022012 48 171 0.0 0.0 0.00 0.25 0.25 94 1012.4
20260508021504 48 171 0.0 0.0 0.00 0.25 0.25 94 1012.4
20260508021003 48 171 0.0 0.0 0.00 0.25 0.25 93 1012.5
20260508020511 49 171 0.0 0.0 0.00 0.25 0.25 93 1012.4
20260508020004 49 171 0.0 0.0 0.00 0.25 0.25 93 1012.3
20260508015503 49 171 0.0 0.0 0.00 0.25 0.25 93 1012.1
20260508015012 49 171 0.0 0.0 0.00 0.25 0.25 93 1011.9
20260508014506 49 171 0.0 0.0 0.00 0.25 0.25 93 1011.9
20260508014013 49 171 0.0 0.0 0.00 0.25 0.25 93 1011.9
20260508013506 49 171 0.0 0.0 0.00 0.25 0.25 93 1011.9
20260508013021 50 171 0.0 0.0 0.00 0.25 0.25 93 1012.1
20260508012506 50 171 0.0 0.0 0.00 0.25 0.25 93 1012.0
20260508012012 50 171 0.0 0.0 0.00 0.25 0.25 93 1012.0
20260508011505 50 171 0.0 0.0 0.00 0.25 0.25 93 1012.0
20260508011002 50 171 0.0 0.0 0.00 0.25 0.25 93 1011.9
20260508010508 51 171 0.0 0.0 0.00 0.25 0.25 93 1011.9
20260508010009 51 171 0.0 0.0 0.00 0.25 0.25 93 1012.0
20260508005502 51 171 0.0 0.0 0.00 0.25 0.25 93 1012.0
20260508005006 51 171 0.0 0.0 0.00 0.25 0.25 93 1012.0
20260508004504 51 171 0.0 0.0 0.00 0.25 0.25 93 1011.9
20260508004006 51 171 0.0 0.0 0.00 0.25 0.25 93 1011.9
20260508003509 52 171 0.0 0.0 0.00 0.25 0.25 93 1011.9
20260508003005 52 171 0.0 0.0 0.00 0.25 0.25 93 1011.7
20260508002507 52 171 0.0 0.0 0.00 0.25 0.25 93 1011.8
20260508002010 52 171 0.0 0.0 0.00 0.25 0.25 92 1011.8
20260508001505 52 171 0.0 0.0 0.00 0.25 0.25 92 1011.8
20260508001004 52 171 0.0 0.0 0.00 0.25 0.25 92 1011.6
20260508000515 52 171 0.0 0.0 0.00 0.25 0.25 92 1011.6
20260508000006 52 171 0.0 0.0 0.00 0.25 0.25 92 1011.4
20260507235507 52 171 0.0 0.0 0.00 0.25 0.25 92 1011.3
20260507235010 52 171 0.0 0.0 0.00 0.25 0.25 91 1011.3
20260507234513 52 171 0.0 0.0 0.00 0.25 0.25 91 1011.2
20260507234006 52 171 0.0 0.0 0.00 0.25 0.25 91 1011.2
20260507233510 52 171 0.0 0.0 0.00 0.25 0.25 91 1011.0
20260507233010 53 171 0.0 0.0 0.00 0.25 0.25 91 1011.0
20260507232507 53 171 0.0 1.0 0.00 0.25 0.25 91 1011.1
20260507232010 53 171 0.0 1.0 0.00 0.25 0.25 91 1011.1
20260507231508 53 170 0.0 1.0 0.00 0.25 0.25 91 1010.9
20260507231008 53 159 0.0 1.0 0.00 0.25 0.25 91 1010.9
20260507230508 53 183 0.0 1.0 0.00 0.25 0.25 91 1011.0
20260507230008 53 183 0.0 1.0 0.00 0.25 0.25 91 1010.7
20260507225508 53 183 0.0 0.0 0.00 0.25 0.25 91 1010.9
20260507225008 53 183 0.0 0.0 0.00 0.25 0.25 90 1010.9
20260507224514 53 183 0.0 0.0 0.00 0.25 0.25 91 1010.8
20260507224007 53 183 0.0 0.0 0.00 0.25 0.25 90 1010.9
20260507223511 53 183 0.0 1.0 0.00 0.25 0.25 90 1010.9
20260507223013 53 183 0.0 1.0 0.00 0.25 0.25 90 1011.1
20260507222516 53 114 0.0 2.0 0.00 0.25 0.25 89 1011.0
20260507222014 53 117 0.0 2.0 0.00 0.25 0.25 90 1010.9
20260507221510 53 112 0.0 2.0 0.00 0.25 0.25 90 1010.9
20260507221010 53 187 0.0 1.0 0.00 0.25 0.25 91 1010.9
20260507220515 53 189 0.0 4.0 0.00 0.25 0.25 91 1010.9